← SMITH PROD INC

Permit History (all operated wells)

Show:
488 permits
SourcePermitAPITypeLeaseCountyIssuedFrom/To
divested52154142-291-32440DRILLBLOXSOM ET ALLIBERTY2002-07-02to: WESTERN ENERGY GROUP LLC
divested52154142-291-32440DRILLBLOXSOM ET ALLIBERTY2002-07-02to: WESTERN ENERGY GROUP LLC
52117542-427-33496DRILLYTURRIA L & L CO. -B-STARR2002-06-19from: KERR-MCGEE OIL & GAS ONSHORE LLC
52117542-427-33496DRILLYTURRIA L & L CO. -B-STARR2002-06-19from: KERR-MCGEE OIL & GAS ONSHORE LLC
divested52068642-409-32702DRILLWELDER RANCHSAN PATRICIO2002-06-05to: URBAN OIL & GAS GROUP LLC
52005642-479-38117DRILLBILLINGS "B"WEBB2002-05-16from: EOG RESOURCES, INC.
51917942-427-33471DRILLSALINAS, FAUSTO ET ALSTARR2002-04-17from: THORP PETROLEUM CORPORATION
51911342-479-38092DRILLBILLINGS BWEBB2002-04-15from: EOG RESOURCES, INC.
51858842-479-38075DRILLBILLINGS AWEBB2002-03-26from: EOG RESOURCES, INC.
51816142-131-38549DRILLHAMILTON, BUCKDUVAL2002-03-08from: EOG RESOURCES, INC.
divested51638042-291-32418DRILLHENDERSONLIBERTY2001-12-21to: KERR-MCGEE OIL & GAS ONSHORE LP
divested51638042-291-32418DRILLHENDERSONLIBERTY2001-12-21to: KERR-MCGEE OIL & GAS ONSHORE LP
divested51638042-291-32418DRILLHENDERSONLIBERTY2001-12-21to: KERR-MCGEE OIL & GAS ONSHORE LP
divested51638042-291-32418DRILLHENDERSONLIBERTY2001-12-21to: KERR-MCGEE OIL & GAS ONSHORE LP
divested51582242-409-04202RECOMPWELDER RANCHSAN PATRICIO2001-12-07to: RENRAG INC.
divested51573942-409-20056RECOMPWELDER RANCHSAN PATRICIO2001-12-04to: RENRAG INC.
divested51579742-291-32417DRILLHENDERSONLIBERTY2001-12-03to: WESTERN ENERGY GROUP LLC
divested51579742-291-32417DRILLHENDERSONLIBERTY2001-12-03to: WESTERN ENERGY GROUP LLC
51565942-479-37994DRILLBILLINGS BWEBB2001-11-28from: EOG RESOURCES, INC.
51541942-479-37984DRILLBILLINGS AWEBB2001-11-16from: EOG RESOURCES, INC.
divested51529542-215-31125RECOMPE. BELL GU 1HIDALGO2001-11-14to: FIDELITY EXPLOR. & PROD. CO.
divested51442142-291-32412DRILLTRAHANLIBERTY2001-10-12to: KERR-MCGEE OIL & GAS ONSHORE LP
filed51401742-409-32333RECOMPWELDER RANCHSAN PATRICIO2001-10-03
51357242-479-37943DRILLBMT/K&HWEBB2001-09-13from: EOG RESOURCES, INC.
divested51320642-291-32406DRILLHENDERSONLIBERTY2001-08-30to: AMRWR LLC
divested51320642-291-32406DRILLHENDERSONLIBERTY2001-08-30to: AMRWR LLC
51312142-047-31952DRILLSANTA FE RANCHBROOKS2001-08-29from: EL PASO PRODUCTION OIL & GAS CO.
divested51302542-409-03869RECOMPWELDER RANCHSAN PATRICIO2001-08-29to: PAN AMERICAN PETROLEUM CORP.
filed51289442-409-32332RECOMPWELDER RANCHSAN PATRICIO2001-08-24
divested51230242-215-32921DRILLCNG GU IVHIDALGO2001-08-06to: HILCORP ENERGY COMPANY
filed51152942-215-31466RECOMPA. LONGORIA GAS UNITHIDALGO2001-07-20
51064742-479-37860DRILLBILLINGS BWEBB2001-06-22from: EOG RESOURCES, INC.
divested50984842-215-31292RECOMPCHESTNUT, F. E.HIDALGO2001-06-11to: ARCO OIL & GAS CO.
divested50882542-241-30682DRILLARCO FEE DIAMOND GAS UNITJASPER2001-05-10to: PERMIAN NATURAL RESOURCES
divested50838742-215-31100RECOMPWEST, TEMPLE W.HIDALGO2001-05-02to: FIDELITY EXPLOR. & PROD. CO.
divested50779142-215-31732RECOMPCNG IIIHIDALGO2001-04-18to: VASTAR RESOURCES INC.
divested50778942-215-32103RECOMPCNG IVHIDALGO2001-04-18to: FIDELITY EXPLOR. & PROD. CO.
50212342-427-32309RECOMPALVAREZ-HINOJOSA GAS UNITSTARR2000-12-19from: KERR-MCGEE OIL & GAS ONSHORE LLC
divested50248442-215-32194RECOMPWEST, T. W.HIDALGO2000-12-05to: FIDELITY EXPLOR. & PROD. CO.
filed50058742-215-00770RECOMPWEST, TEMPLE W.HIDALGO2000-10-13
divested50034242-291-32369DRILLHOLBROOKLIBERTY2000-10-06to: WESTERN ENERGY GROUP LLC
divested49891042-291-32362DRILLMITCHELL, LEONLIBERTY2000-08-25to: WESTERN ENERGY GROUP LLC
divested49701442-291-30497DRILLMALLETTLIBERTY2000-07-12to: WESTERN ENERGY GROUP LLC
49540042-427-33216RECOMPGARCIA, L & L CO. -C-STARR2000-05-23from: KERR-MCGEE OIL & GAS ONSHORE LLC
49540042-427-33216RECOMPGARCIA L & L CO. -C-STARR2000-05-23from: KERR-MCGEE OIL & GAS ONSHORE LLC
divested49392142-291-32356DRILLMALLETTLIBERTY2000-04-12to: AMRWR LLC
divested49309742-199-05526RECOMPNONA MILLS FIELD UNITHARDIN2000-03-21to: MOBIL PRODUCING TX. & N.M. INC.
filed49309642-215-32226RECOMPHALSTEADHIDALGO2000-03-21
divested49267942-215-32740DRILLWEST, T. W.HIDALGO2000-03-20to: HILCORP ENERGY COMPANY
divested49273742-291-32355DRILLTUER-MITCHELLLIBERTY2000-03-06to: FAULCONER ENERGY LLC
page 7 of 10
Live © 2026 Petrora